Regional Weather Roundup
Issued by NWS Sterling, VA

Home | Current Version | Previous Version | Graphics & Text | Print | Product List | Glossary On
Versions: 1 2 3 4 5 6 7 8 9 10 11 12 13 14 15 16 17 18 19 20 21 22 23 24 25 26 27
000
ASUS41 KLWX 231211
RWRLWX

REGIONAL WEATHER ROUNDUP
NATIONAL WEATHER SERVICE BALTIMORE MD/WASHINGTON DC
800 AM EDT TUE MAY 23 2017

Note: "FAIR" indicates few or no clouds below 12,000 feet
with no significant weather and/or obstructions to visibility.
 TC=TEMPERATURE CELSIUS

 * =Non NWS site. Station does not report precipitation (e.g. rain,
    snow, etc.), thunder, or fog.

DCZ001-MDZ009-015-VAZ040>042-051-053>054-231300-
WASHINGTON METRO

CITY           SKY/WX    TMP DP  RH WIND       PRES   REMARKS
WASHINGTON NAT CLOUDY    63  55  75 NE8       29.95S
DULLES         CLOUDY    59  51  75 NE5       29.95F
ANDREWS AFB    PTSUNNY   59  59  98 N8        29.93F
FT BELVOIR     PTSUNNY   62  52  70 N3        29.94S
QUANTICO       CLOUDY    63  55  75 N5        29.95R
COLLEGE PARK*  PTSUNNY   58  55  88 CALM      29.94F
LEESBURG*      CLOUDY    59  54  82 N6        29.96F
MANASSAS*        N/A     59  52  77 N3        29.95F
GAITHERSBURG*  PTSUNNY   56  52  86 NE6       29.95F

$$

MDZ006>007-011-014-231300-
BALTIMORE METRO

CITY           SKY/WX    TMP DP  RH WIND       PRES   REMARKS
BWI AIRPORT    CLOUDY    60  56  86 NE5       29.95R
MD SCIENCE CTR   N/A     63  55  75 MISG      29.96S
MARTIN STATE   CLOUDY    59  57  94 NW6       29.97S
ANNAPOLIS      PTSUNNY   63  60  90 N7        29.95R
FORT MEADE*    CLOUDY    57  55  94 N3        29.97F

$$

MDZ012-015-019>023-231300-
MARYLAND EASTERN SHORE

CITY           SKY/WX    TMP DP  RH WIND       PRES   REMARKS
OCEAN CITY     CLOUDY    63  60  90 NE9       29.95S
SALISBURY      CLOUDY    63  62  97 NE10      29.93F FOG
BAY BRIDGE AP* CLOUDY    61  57  88 N6        29.95R
CAMBRIDGE*     SUNNY     63  61  94 NE6       29.94S
EASTON*        PTSUNNY   63  59  88 NE5       29.98S FOG

$$

MDZ017>025-231300-
SOUTHERN MARYLAND

CITY           SKY/WX    TMP DP  RH WIND       PRES   REMARKS
PATUXENT RIVER CLOUDY    65  64  97 NE10      29.94R FOG
ST INIGOES     CLOUDY    65  62  90 NE6       29.93R
LEONARDTOWN*   CLOUDY    61  59  94 CALM      29.96R

$$

MDZ003>005-231300-
NORTH CENTRAL MARYLAND

CITY           SKY/WX    TMP DP  RH WIND       PRES   REMARKS
FREDERICK*     SUNNY     55  55 100 CALM      29.99S
HAGERSTOWN APT CLOUDY    58  52  80 CALM      29.96F
WESTMINSTER*   CLOUDY    57  54  88 CALM      29.97S

$$

MDZ501>502-231300-
WESTERN MARYLAND

CITY           SKY/WX    TMP DP  RH WIND       PRES   REMARKS
OAKLAND*       NOT AVBL
CUMBERLAND*    CLOUDY    54  50  87 CALM      30.02R

$$

VAZ025>031-231300-
SHENANDOAH VALLEY

CITY           SKY/WX    TMP DP  RH WIND       PRES   REMARKS
WINCHESTER*    CLOUDY    54  52  94 CALM      29.97R
FRONT ROYAL*   CLOUDY    54  52  94 CALM      29.96R
LURAY*         CLOUDY    57  54  88 NE3       29.95S
NEW MARKET*    CLOUDY    56  53  92 NE3       29.95S
STAUNTON*      CLOUDY    57  53  85 NE3       29.95F
WAYNESBORO*    CLOUDY    57  54  90 CALM      29.93F

$$

WVZ021-048>050-054>055-231300-
EASTERN WEST VIRGINIA PANHANDLE

CITY           SKY/WX    TMP DP  RH WIND       PRES   REMARKS
MARTINSBURG    CLOUDY    55  50  83 CALM      29.97R
PETERSBURG*    CLOUDY    55  52  91 CALM      29.98F

$$

VAZ036>039-050-231300-
CENTRAL FOOTHILLS

CITY           SKY/WX    TMP DP  RH WIND       PRES   REMARKS
CHARLOTTESVILL CLOUDY    62  54  74 NE6       29.93F
CULPEPER*      CLOUDY    60  55  84 CALM      29.96S
ORANGE*        DRIZZLE   59  52  77 NE3       29.94S
GORDONSVILLE*  CLOUDY    60  55  82 NE3       29.93S
WARRENTON*     PTSUNNY   60  51  72 CALM      29.94S

$$

VAZ055>057-231300-
NORTH AND CENTRAL PIEDMONT

CITY           SKY/WX    TMP DP  RH WIND       PRES   REMARKS
FREDERICKSBRG* CLOUDY    62  55  77 NE3       29.93F
STAFFORD*      CLOUDY    60  54  82 NE5       29.97F

$$

NCZ024-NYZ072-PAZ021-071-VAZ022-071-231300-
OTHER REGIONAL OBSERVATIONS

CITY           SKY/WX    TMP DP  RH WIND       PRES   REMARKS
NEW YORK CITY  CLOUDY    59  51  75 NE7       29.98F
PHILADELPHIA   CLOUDY    63  53  70 N7        29.96S
PITTSBURGH     CLOUDY    53  50  89 CALM      29.95S
ROANOKE        LGT RAIN  60  54  80 NE8       29.95R
RICHMOND       LGT RAIN  64  64 100 NE7       29.93R FOG
RALEIGH        LGT RAIN  68  67  96 E3        29.89R FOG

$$

ANZ530>537-231300-
MARINE OBSERVATIONS

STATION/POSITION TIME  TEMP    WIND        PRES
                       AIR SEA DIR/SP/G
                 (UTC) (F)     (DEG/KT/KT) (MB)
THOMAS PT LIGHT  1200   63 65   30/ 14/ 15   N/A
BALT KEY BRIDGE  1148   61      10/  7/  8 1014.2S
COVE POINT       1148   64      40/ 10/ 14 1014.3R
LEWISETTA        1148   65 69   70/  5/  7 1013.8R
SOLOMONS ISLAND  1148   64 67   20/  5/  8   N/A
PINEY POINT      1142           60/  1/  2   N/A

$$





USA.gov is the U.S. government's official web portal to all federal, state and local government web resources and services.